Back to catalog

COSMOS 374 DEB

AliveLEO
NORAD 18517·DEBRIS·🇷🇺 Russia

Launched Oct 23, 1970 from Baikonur Cosmodrome

Loading…

Next Passes (next 24 hours)

TLE

FreshSource: Space-Track

Epoch: Sep 14, 2026, 07:27 UTC

1 18517U 70089DD  26257.31086865  .00003980  00000-0  53361-3 0  9996
2 18517  62.3820 159.8934 0258014 217.3772 140.9112 14.60484966886999

Track COSMOS 374 DEB in real time with AllMySat

Download on the App Store